Weather History for LEST - June, 2013

Change the Weather History Date:

Wednesday, June 5, 2013

  Actual Average Record
Temperature  
Mean Temperature 64 °F -  
Max Temperature 75 °F 70 °F 89 °F (2006)
Min Temperature 53 °F 52 °F 44 °F (2003)
Degree Days  
Heating Degree Days 1    
Growing Degree Days 14 (Base 50)    
Moisture  
Dew Point 50 °F    
Average Humidity 61    
Maximum Humidity 88    
Minimum Humidity 41    
Precipitation  
Precipitation 0.00 in - - ()
Sea Level Pressure  
Sea Level Pressure 29.92 in    
Wind  
Wind Speed 3 mph ()    
Max Wind Speed 12 mph    
Max Gust Speed -    
Visibility 6.2 miles    
Events      
Averages and records for this station are not official NWS values.
T = Trace of Precipitation, MM = Missing Value Source: Averaged Metar Reports

Daily Weather History Graph

Daily Weather History Graph

Search for Another Location

Airport or City:

Trip Planner

Search our weather history database for the weather conditions in past years. The results will help you decide how hot, cold, wet, or windy it might be!

Date:

Astronomy

Jun. 05, 2013 Rise Set
Actual Time 6:55 AM CEST 10:08 PM CEST
Civil Twilight 6:21 AM CEST 10:43 PM CEST
Nautical Twilight 5:36 AM CEST 11:28 PM CEST
Astronomical Twilight 4:42 AM CEST 12:22 AM CEST
Moon 4:56 AM CEST (6/5) 7:19 PM CEST (6/5)
Length of Visible Light 16h 22m
Length of Day
15h 12m
Waning Crescent, 9% of the Moon is Illuminated
Jun 5
Waning Crescent
Jun 8
New
Jun 16
First Quarter
Jun 23
Full
Jun 30
Last Quarter

Hourly Weather History & Observations

Time (CEST) Temp. Dew Point Humidity Pressure Visibility Wind Dir Wind Speed Gust Speed Precip Events Conditions
12:00 AM 64.4 °F 44.6 °F 49% 29.92 in - Variable 2.3 mph - N/A   Clear
12:30 AM 64.4 °F 46.4 °F 52% 29.92 in - East 4.6 mph - N/A   Clear
1:00 AM 62.6 °F 46.4 °F 55% 29.92 in - East 4.6 mph - N/A   Clear
1:30 AM 60.8 °F 46.4 °F 59% 29.92 in - ESE 3.5 mph - N/A   Clear
2:00 AM 57.2 °F 46.4 °F 67% 29.92 in - Variable 2.3 mph - N/A   Clear
2:30 AM 59.0 °F 48.2 °F 67% 29.92 in - ESE 3.5 mph - N/A   Clear
3:00 AM 59.0 °F 48.2 °F 67% 29.92 in - ESE 3.5 mph - N/A   Clear
3:30 AM 57.2 °F 48.2 °F 72% 29.92 in - Calm Calm - N/A   Clear
4:00 AM 55.4 °F 48.2 °F 77% 29.89 in - Calm Calm - N/A   Clear
4:30 AM 55.4 °F 48.2 °F 77% 29.89 in - Calm Calm - N/A   Clear
5:00 AM 55.4 °F 48.2 °F 77% 29.89 in - Calm Calm - N/A   Clear
5:30 AM 53.6 °F 48.2 °F 82% 29.89 in - South 3.5 mph - N/A   Clear
6:00 AM 55.4 °F 48.2 °F 77% 29.89 in - SE 3.5 mph - N/A   Clear
6:30 AM 53.6 °F 48.2 °F 82% 29.89 in - Variable 2.3 mph - N/A   Clear
7:00 AM 53.6 °F 50.0 °F 88% 29.89 in - SE 3.5 mph - N/A   Clear
7:30 AM 55.4 °F 50.0 °F 82% 29.89 in - Variable 2.3 mph - N/A   Clear
8:00 AM 55.4 °F 50.0 °F 82% 29.89 in - SE 3.5 mph - N/A   Clear
8:30 AM 59.0 °F 51.8 °F 77% 29.92 in - Variable 1.2 mph - N/A   Clear
9:00 AM 59.0 °F 51.8 °F 77% 29.92 in - Variable 2.3 mph - N/A   Clear
9:30 AM 60.8 °F 53.6 °F 77% 29.92 in - SE 3.5 mph - N/A   Clear
10:00 AM 62.6 °F 51.8 °F 68% 29.92 in - Variable 2.3 mph - N/A   Clear
10:30 AM 66.2 °F 51.8 °F 60% 29.92 in - SSE 3.5 mph - N/A   Clear
11:00 AM 66.2 °F 50.0 °F 56% 29.92 in - SSW 3.5 mph - N/A   Clear
11:30 AM 69.8 °F 50.0 °F 49% 29.92 in - Variable 2.3 mph - N/A   Clear
12:00 PM 69.8 °F 48.2 °F 46% 29.92 in - Variable 2.3 mph - N/A   Clear
12:30 PM 73.4 °F 48.2 °F 41% 29.92 in 6.2 mi West 4.6 mph - N/A   Partly Cloudy
1:00 PM 73.4 °F 50.0 °F 44% 29.92 in 6.2 mi West 4.6 mph - N/A   Partly Cloudy
1:30 PM 75.2 °F 53.6 °F 47% 29.92 in 6.2 mi Variable 3.5 mph - N/A   Partly Cloudy
2:00 PM 73.4 °F 51.8 °F 47% 29.92 in 6.2 mi WSW 6.9 mph - N/A   Partly Cloudy
2:30 PM 75.2 °F 51.8 °F 44% 29.92 in 6.2 mi WSW 8.1 mph - N/A   Partly Cloudy
3:00 PM 75.2 °F 51.8 °F 44% 29.92 in 6.2 mi West 6.9 mph - N/A   Partly Cloudy
3:30 PM 75.2 °F 51.8 °F 44% 29.92 in 6.2 mi WSW 8.1 mph - N/A   Partly Cloudy
4:00 PM 75.2 °F 51.8 °F 44% 29.92 in 6.2 mi WSW 9.2 mph - N/A   Partly Cloudy
4:30 PM 75.2 °F 53.6 °F 47% 29.92 in 6.2 mi WNW 10.4 mph - N/A   Partly Cloudy
5:00 PM 75.2 °F 53.6 °F 47% 29.92 in 6.2 mi West 8.1 mph - N/A   Partly Cloudy
5:30 PM 73.4 °F 53.6 °F 50% 29.92 in 6.2 mi West 9.2 mph - N/A   Partly Cloudy
6:00 PM 71.6 °F 50.0 °F 46% 29.92 in 6.2 mi WSW 11.5 mph - N/A   Partly Cloudy
6:30 PM 71.6 °F 51.8 °F 50% 29.92 in 6.2 mi West 9.2 mph - N/A   Partly Cloudy
7:00 PM 69.8 °F 51.8 °F 53% 29.92 in 6.2 mi West 8.1 mph - N/A   Partly Cloudy
7:30 PM 68.0 °F 50.0 °F 52% 29.92 in 6.2 mi West 6.9 mph - N/A   Partly Cloudy
8:00 PM 68.0 °F 51.8 °F 56% 29.92 in 6.2 mi WSW 5.8 mph - N/A   Partly Cloudy
8:30 PM 68.0 °F 53.6 °F 60% 29.92 in 6.2 mi WSW 4.6 mph - N/A   Partly Cloudy
9:00 PM 64.4 °F 51.8 °F 64% 29.95 in 6.2 mi SW 3.5 mph - N/A   Partly Cloudy
9:30 PM 62.6 °F 50.0 °F 63% 29.95 in 6.2 mi SW 4.6 mph - N/A   Partly Cloudy
10:00 PM 60.8 °F 48.2 °F 63% 29.95 in 6.2 mi Variable 2.3 mph - N/A   Partly Cloudy
10:30 PM 59.0 °F 48.2 °F 67% 29.95 in 6.2 mi SSW 4.6 mph - N/A   Partly Cloudy
11:00 PM 59.0 °F 48.2 °F 67% 29.95 in 6.2 mi Variable 2.3 mph - N/A   Partly Cloudy
11:30 PM 57.2 °F 46.4 °F 67% 29.95 in 6.2 mi Calm Calm - N/A   Partly Cloudy